This is the latest recevied weather packets stored in our database for station/object W4DEX-2. If no packets are shown the sender has not sent any weather packets the latest 1 day(s).
| Time | Temp. | Humidity | Pressure | Rain* | Wind** | Luminosity | Snow |
|---|---|---|---|---|---|---|---|
| 1778015102 | 25° C | 30% | 1013.6 hPa | 0 mm | 5.81 m/s, 184° | - | - |
| 1778014802 | 25° C | 31% | 1013.6 hPa | 0 mm | 4.92 m/s, 178° | - | - |
| 1778014202 | 25.56° C | 30% | 1013.6 hPa | 0 mm | 6.71 m/s, 180° | - | - |
| 1778013902 | 26.11° C | 28% | 1013.7 hPa | 0 mm | 5.36 m/s, 182° | - | - |
| 1778013302 | 26.11° C | 28% | 1013.8 hPa | 0 mm | 4.92 m/s, 171° | - | - |
| 1778013002 | 26.67° C | 28% | 1013.8 hPa | 0 mm | 4.92 m/s, 180° | - | - |
| 1778012403 | 26.11° C | 29% | 1013.7 hPa | 0 mm | 4.92 m/s, 184° | - | - |
| 1778011202 | 26.11° C | 29% | 1014 hPa | 0 mm | 4.92 m/s, 180° | - | - |
| 1778010902 | 25.56° C | 30% | 1014.2 hPa | 0 mm | 5.36 m/s, 175° | - | - |
| 1778010609 | 25.56° C | 30% | 1014.2 hPa | 0 mm | 5.36 m/s, 175° | - | - |
| 1778010302 | 26.11° C | 29% | 1014.3 hPa | 0 mm | 4.02 m/s, 194° | - | - |
| 1778010002 | 25.56° C | 30% | 1014.3 hPa | 0 mm | 5.81 m/s, 182° | - | - |
| 1778009707 | 26.11° C | 30% | 1014.3 hPa | 0 mm | 4.92 m/s, 180° | - | - |
| 1778009402 | 26.11° C | 29% | 1014.4 hPa | 0 mm | 4.92 m/s, 178° | - | - |
| 1778009102 | 26.11° C | 28% | 1014.4 hPa | 0 mm | 4.92 m/s, 177° | - | - |
| 1778008803 | 25.56° C | 29% | 1014.4 hPa | 0 mm | 5.36 m/s, 183° | - | - |
| 1778008502 | 26.11° C | 30% | 1014.5 hPa | 0 mm | 4.92 m/s, 175° | - | - |
| 1778008202 | 25.56° C | 30% | 1014.8 hPa | 0 mm | 4.47 m/s, 184° | - | - |
| 1778007902 | 26.11° C | 29% | 1015 hPa | 0 mm | 4.47 m/s, 181° | - | - |
| 1778007603 | 26.11° C | 28% | 1014.9 hPa | 0 mm | 4.92 m/s, 184° | - | - |
| 1778007301 | 27.22° C | 27% | 1014.9 hPa | 0 mm | 5.36 m/s, 189° | - | - |
| 1778006702 | 26.67° C | 26% | 1015.4 hPa | 0 mm | 3.58 m/s, 184° | - | - |
| 1778006402 | 26.11° C | 28% | 1015.5 hPa | 0 mm | 4.47 m/s, 176° | - | - |
| 1778006102 | 26.11° C | 29% | 1015.3 hPa | 0 mm | 5.36 m/s, 178° | - | - |
| 1778005803 | 26.11° C | 28% | 1015.2 hPa | 0 mm | 4.92 m/s, 181° | - | - |
* Rain latest hour (hover to see other rain measurements)
** Current wind speed in m/s (hover to see current wind gust speed)